This demonstration page uses our WeatherBlox Daily Observations layout. Learn more.

Left ArrowRight Arrow

38.20091, -84.87328

Hourly Observations for April 7, 2016

Temp ( °F °C ) Dew Point ( °F °C ) Humidity (%) Winds ( mph kmh ) Pressure ( in mb ) Visibility ( mi km ) Precip ( " mm )
12:53 am 00:53 Cloudy 48 8.9 41 5 77 77 WSW 9 15 29.67 1005 10 16 0.00 0.00
1:53 am 01:53 Cloudy 49 9.4 42 5.6 77 77 W 9 15 29.67 1005 10 16 0.00 0.00
2:53 am 02:53 Cloudy 49 9.4 42 5.6 77 77 WSW 10 17 29.67 1005 10 16 0.00 0.03
3:12 am 03:12 Cloudy 50 10 42 5.6 74 74 WSW 8 13 29.68 1005 10 16 0.00 0.00
3:53 am 03:53 Cloudy 50 10 42 5.6 74 74 WSW 12 19 29.65 1004 10 16 0.00 0.00
4:53 am 04:53 Cloudy with Light Rain 48 8.9 42 5.6 80 80 SW 9 15 29.63 1003 10 16 0.00 0.03
5:07 am 05:07 Cloudy 49 9.4 42 5.6 77 77 WSW 9 15 29.65 1004 10 16 0.00 0.03
5:53 am 05:53 Cloudy 49 9.4 42 5.6 77 77 SW 10 17 29.62 1003 10 16 0.00 0.03
6:02 am 06:02 Cloudy 48 8.9 41 5 77 77 SW 10 17 29.62 1003 10 16 0.00 0.00
6:53 am 06:53 Cloudy 47 8.3 42 5.6 83 83 SW 10 17 29.62 1003 10 16 0.02 0.51
7:53 am 07:53 Cloudy 47 8.3 41 5 80 80 SW 14 22 29.61 1003 10 16 0.00 0.00
8:53 am 08:53 Cloudy 49 9.4 40 4.4 71 71 WSW 14 22 29.62 1003 10 16 0.00 0.00
9:53 am 09:53 Cloudy 50 10 36 2.2 59 59 W 17 28 29.63 1003 10 16 0.00 0.00
10:53 am 10:53 Cloudy 48 8.9 34 1.1 58 58 W 14 22 29.65 1004 10 16 0.00 0.00
11:31 am 11:31 Cloudy 46 7.8 34 1.1 63 63 WNW 12 19 29.68 1005 10 16 0.00 0.00
11:46 am 11:46 Cloudy 45 7.2 33 0.6 63 63 WNW 14 22 29.68 1005 10 16 0.00 0.00
11:53 am 11:53 Cloudy 45 7.2 33 0.6 63 63 W 12 19 29.68 1005 10 16 0.00 0.00
12:23 pm 12:23 Cloudy 45 7.2 33 0.6 63 63 WNW 15 24 29.68 1005 10 16 0.00 0.00
12:44 pm 12:44 Cloudy 48 8.9 34 1.1 58 58 W 12 19 29.68 1005 10 16 0.00 0.00
12:53 pm 12:53 Cloudy 48 8.9 32 0 54 54 W 16 26 29.68 1005 10 16 0.00 0.00
1:53 pm 13:53 Cloudy 46 7.8 31 -0.6 56 56 W 9 15 29.70 1006 10 16 0.00 0.00
2:53 pm 14:53 Cloudy 46 7.8 31 -0.6 56 56 W 13 20 29.70 1006 10 16 0.00 0.00
3:53 pm 15:53 Cloudy 46 7.8 33 0.6 61 61 W 12 19 29.72 1007 10 16 0.00 0.00
4:53 pm 16:53 Cloudy 46 7.8 31 -0.6 56 56 W 17 28 29.75 1007 10 16 0.00 0.00
5:53 pm 17:53 Cloudy 46 7.8 30 -1.1 54 54 W 13 20 29.78 1008 10 16 0.00 0.00
6:53 pm 18:53 Cloudy 44 6.7 30 -1.1 58 58 NW 15 24 29.80 1009 10 16 0.00 0.00
7:53 pm 19:53 Cloudy 44 6.7 31 -0.6 60 60 W 8 13 29.81 1009 10 16 0.00 0.00
8:53 pm 20:53 Cloudy 44 6.7 30 -1.1 58 58 W 6 9 29.83 1010 10 16 0.00 0.00
9:53 pm 21:53 Cloudy 44 6.7 30 -1.1 58 58 W 8 13 29.84 1011 10 16 0.00 0.00
10:53 pm 22:53 Cloudy 44 6.7 30 -1.1 58 58 WNW 8 13 29.86 1011 10 16 0.00 0.00
11:53 pm 23:53 Mostly Clear 42 5.6 28 -2.2 58 58 WNW 8 13 29.86 1011 10 16 0.00 0.00

Powered by AerisWeather